Showing default

CENTAURI-1, 43809

Orbit data source: Space-Track

CENTAURI-1, 43809 is a payload satellite owned by Fleet Space (AU) in SSO that was launched on Mon, 03 Dec 2018 UTC via an FALCON 9 launch vehicle from the Air Force Western Test Range (AFWTR). Payload-class satellites include a variety of spacecraft equipped with specific instruments for various scientific and technological missions. These include communications satellites like Starlink; space stations such as the ISS; scientific satellites like the Hubble; Earth observation satellites from companies like Planet Labs, Umbra, and HawkEye 360; GPS; miniature CubeSats for education and research; and military/defense satellites.

Loading next visibility...
Identifier
43809, 2018-099BD
Orbit
SSO
Country
Flag of AUAU / AUS
Related business
Manufacturer
Fleet Space
Mission
Operational Commercial Communications
Bus & Motor
CUBESAT 3U, Unknown motor
Mass
5 kg wet, 5 kg dry
Launch date (UTC)
2018-12-03 (7 years ago)
Launch vehicle
FALCON 9
Launch site
Air Force Western Test Range (AFWTR)
Object type
Payload
Rocket body
Debris
Shape & HBR
Box + 2 Pan, 0.1 m
Radar Cross Section
0.035 m², Small (<0.1 m²)

Expand to show TLE details & history
Last TLE update: 16 hours ago

TLE from 16 hours ago
0 CENTAURI-1
1 43809U 18099BD  26034.38024102  .00006599  00000-0  35815-3 0  9990
2 43809  97.4430  88.9817 0016059  74.8011 285.4996 15.14761233392231
Epoch: 2026-02-03T09:07Z
TLE epoch observation values (Epoch: 2026-02-03T09:07:32.824Z)
Latitude
0.00003°
Longitude
178.53292°
Altitude
521.841 km
Speed
7.604 km/s
True Right ascension
05h 55m 55s
True Declination
0° 00' 00"
Sunlit
Object was in full shadow at epoch
Visualization orbit readout
Latitude
Unknown
Longitude
Unknown
Altitude
Unknown
Speed
Unknown
Apparent Right ascension
Unknown
Apparent Declination
Unknown
Sunlit
N/A
Visualization observer readout
Local Sidereal Time
03:31:36
Azimuth
Unknown
Elevation
Unknown
Doppler factor
Unknown
Orbital elements
Apogee altitude
529.754 km
Perigee altitude
507.602 km
Semi-major axis
6,896.815 km
Eccentricity
0.00161
Inclination
97.443°
RAAN
88.9817°
Arg. of periapsis
74.8011°
True anomaly
285.32217°
Mean anomaly
285.4996°
Eccentric anomaly
285.4109°
Mean motion
3.7894 °/min
Orbital period
95 mins
BSTAR
0.00035815
Loading maneuver chart data...
Computing Atmospheric mass density...
Loading historical data...
Loading historical data...
Loading historical data...
Loading historical data...
Loading historical data...
Loading historical data...
Loading historical data...

Documentation

Showing up to 5 results
|